{"data":{"norad_id":65810,"intl_designator":"2025-218V","name":"STARLINK-35268","alt_names":[],"object_type":"PAYLOAD","status":"ACTIVE","operator":null,"country":"US","launch_date":"2025-09-26","launch_site_code":"AFWTR","launch_vehicle":null,"mission":null,"orbit_class":"UNKNOWN","rcs_meters":null,"size_class":null,"mass_kg":null,"dimensions":null,"purposes":["comms"],"wikipedia_slug":null,"has_3d_model":false,"image_url":null,"decayed_at":null,"tle_current":{"epoch":"2026-05-25T02:59:17.016864Z","epoch_age_seconds":67516,"freshness":"FRESH","line1":"1 65810U 25218V   26145.12450251  .00003285  00000+0  23161-3 0  9999","line2":"2 65810  97.4498   7.9570 0003029  71.1454 289.0102 15.05649856 36478","mean_motion":15.05649856,"eccentricity":0.0003029,"inclination_deg":97.4498,"raan_deg":7.957,"arg_perigee_deg":71.1454,"mean_anomaly_deg":289.0102,"bstar":0.00023161,"rev_number":3647,"period_min":95.639766062582,"perigee_km":547.41321098522,"apogee_km":551.60998050452,"semimajor_km":6927.6485957449,"source":"CELESTRAK","updated_at":"2026-05-25T13:38:20.940052Z"}}}